Weather History for KLBT - March, 2012

Change the Weather History Date:

Thursday, March 15, 2012

  Actual Average Record
Temperature  
Mean Temperature 67 °F 54 °F  
Max Temperature 83 °F 66 °F 83 °F (2012)
Min Temperature 51 °F 42 °F 27 °F (2013)
Degree Days  
Heating Degree Days 0 11  
Month to date heating degree days 135 199  
Since 1 July heating degree days 1983 2429  
Cooling Degree Days 2 0  
Month to date cooling degree days 13 0  
Year to date cooling degree days 13 3  
Growing Degree Days 16 (Base 50)    
Moisture  
Dew Point 55 °F    
Average Humidity 68    
Maximum Humidity 100    
Minimum Humidity 36    
Precipitation  
Precipitation 0.00 in 0.11 in 1.01 in (2001)
Month to date precipitation 1.69 1.63  
Year to date precipitation 6.21 7.50  
Sea Level Pressure  
Sea Level Pressure 30.24 in    
Wind  
Wind Speed 3 mph (SSE)    
Max Wind Speed 12 mph    
Max Gust Speed 20 mph    
Visibility 5 miles    
Events Fog    
T = Trace of Precipitation, MM = Missing Value Source: NWS Daily Summary

Daily Weather History Graph

Daily Weather History Graph

Search for Another Location

Airport or City:

Trip Planner

Search our weather history database for the weather conditions in past years. The results will help you decide how hot, cold, wet, or windy it might be!

Date:

Astronomy

Mar. 15, 2012 Rise Set
Actual Time 7:26 AM EDT 7:24 PM EDT
Civil Twilight 7:01 AM EDT 7:49 PM EDT
Nautical Twilight 6:31 AM EDT 8:18 PM EDT
Astronomical Twilight 6:02 AM EDT 8:48 PM EDT
Moon 2:38 AM EDT (3/15) 12:53 PM EDT (3/15)
Length of Visible Light 12h 48m
Length of Day
11h 58m
Last Quarter, 43% of the Moon is Illuminated
Mar 15
Last Quarter
Mar 22
New
Mar 30
First Quarter
Apr 6
Full
Apr 13
Last Quarter

Hourly Weather History & Observations

Time (EDT) Temp. Heat Index Dew Point Humidity Pressure Visibility Wind Dir Wind Speed Gust Speed Precip Events Conditions
12:54 AM 59.0 °F - 57.0 °F 93% 30.22 in 8.0 mi Calm Calm - N/A   Clear
1:54 AM 57.0 °F - 55.0 °F 93% 30.23 in 4.0 mi Calm Calm - N/A   Clear
2:54 AM 54.0 °F - 54.0 °F 100% 30.23 in 4.0 mi Calm Calm - N/A   Clear
3:54 AM 54.0 °F - 53.1 °F 97% 30.22 in 3.0 mi Calm Calm - N/A   Clear
4:13 AM 55.4 °F - 53.6 °F 94% 30.22 in 2.5 mi Calm Calm - N/A   Clear
4:20 AM 53.6 °F - 51.8 °F 94% 30.22 in 2.5 mi Calm Calm - N/A   Partly Cloudy
4:22 AM 53.6 °F - 51.8 °F 94% 30.22 in 1.0 mi Calm Calm - N/A   Mist
4:29 AM 53.6 °F - 51.8 °F 94% 30.22 in 0.2 mi ESE 3.5 mph - N/A Fog Fog
4:39 AM 53.6 °F - 53.6 °F 100% 30.23 in 1.2 mi ESE 3.5 mph - N/A   Scattered Clouds
4:43 AM 53.6 °F - 51.8 °F 94% 30.23 in 2.0 mi ESE 3.5 mph - N/A   Scattered Clouds
4:54 AM 53.1 °F - 52.0 °F 96% 30.23 in 2.5 mi ESE 3.5 mph - N/A   Partly Cloudy
5:13 AM 53.6 °F - 51.8 °F 94% 30.23 in 1.5 mi ESE 4.6 mph - N/A   Mostly Cloudy
5:15 AM 53.6 °F - 51.8 °F 94% 30.23 in 0.8 mi ESE 4.6 mph - N/A   Mist
5:54 AM 52.0 °F - 52.0 °F 100% 30.24 in 0.2 mi Calm Calm - N/A Fog Fog
6:54 AM 51.1 °F - 51.1 °F 100% 30.25 in 0.2 mi Calm Calm - N/A Fog Fog
7:21 AM 51.8 °F - 51.8 °F 100% 30.26 in 1.2 mi Calm Calm - N/A   Overcast
7:23 AM 51.8 °F - 51.8 °F 100% 30.26 in 2.0 mi Calm Calm - N/A   Overcast
7:26 AM 51.8 °F - 51.8 °F 100% 30.26 in 1.0 mi Calm Calm - N/A   Mist
7:33 AM 51.8 °F - 51.8 °F 100% 30.26 in 0.2 mi Calm Calm - N/A Fog Fog
7:54 AM 52.0 °F - 52.0 °F 100% 30.27 in 0.2 mi Calm Calm - N/A Fog Fog
8:54 AM 57.9 °F - 57.9 °F 100% 30.28 in 1.0 mi Calm Calm - N/A   Mist
9:03 AM 59.0 °F - 57.2 °F 94% 30.28 in 1.5 mi Calm Calm - N/A   Clear
9:08 AM 59.0 °F - 59.0 °F 100% 30.28 in 2.0 mi Calm Calm - N/A   Clear
9:27 AM 62.6 °F - 60.8 °F 94% 30.28 in 4.0 mi Calm Calm - N/A   Clear
9:54 AM 66.0 °F - 62.1 °F 87% 30.28 in 5.0 mi Calm Calm - N/A   Clear
10:54 AM 72.0 °F - 62.1 °F 71% 30.28 in 7.0 mi SW 8.1 mph - N/A   Clear
11:54 AM 75.9 °F - 63.0 °F 64% 30.28 in 7.0 mi South 4.6 mph - N/A   Partly Cloudy
12:43 PM 78.8 °F - 60.8 °F 54% 30.28 in 8.0 mi WSW 3.5 mph - N/A   Mostly Cloudy
12:54 PM 79.0 °F - 59.0 °F 50% 30.28 in 9.0 mi Variable 5.8 mph - N/A   Overcast
1:09 PM 78.8 °F - 60.8 °F 54% 30.28 in 9.0 mi WSW 9.2 mph - N/A   Overcast
1:54 PM 80.1 °F 80.2 °F 55.9 °F 43% 30.25 in 10.0 mi WNW 4.6 mph - N/A   Partly Cloudy
2:54 PM 81.0 °F 80.5 °F 54.0 °F 39% 30.21 in 10.0 mi SSW 5.8 mph 16.1 mph N/A   Mostly Cloudy
3:54 PM 81.0 °F - 51.1 °F 35% 30.20 in 10.0 mi Variable 4.6 mph - N/A   Clear
4:54 PM 79.0 °F - 54.0 °F 42% 30.19 in 10.0 mi SSW 4.6 mph - N/A   Clear
5:54 PM 79.0 °F - 54.0 °F 42% 30.18 in 10.0 mi SSE 4.6 mph - N/A   Clear
6:54 PM 75.9 °F - 54.0 °F 46% 30.18 in 10.0 mi Calm Calm - N/A   Clear
7:54 PM 73.0 °F - 50.0 °F 44% 30.19 in 10.0 mi SSE 4.6 mph - N/A   Clear
8:54 PM 69.1 °F - 54.0 °F 58% 30.20 in 10.0 mi SSE 5.8 mph - N/A   Clear
9:54 PM 66.0 °F - 57.9 °F 75% 30.21 in 10.0 mi South 3.5 mph - N/A   Clear
10:54 PM 64.9 °F - 59.0 °F 81% 30.22 in 10.0 mi South 4.6 mph - N/A   Clear
11:54 PM 64.0 °F - 59.0 °F 84% 30.23 in 10.0 mi Variable 3.5 mph - N/A   Clear